This demonstration page uses our WeatherBlox Daily Observations layout. Learn more.

Left ArrowRight Arrow

38.20091, -84.87328

Hourly Observations for January 7, 2016

Temp ( °F °C ) Dew Point ( °F °C ) Humidity (%) Winds ( mph kmh ) Pressure ( in mb ) Visibility ( mi km ) Precip ( " mm )
12:53 am 00:53 Clear 22 -5.6 16 -8.9 78 78 Calm 30.25 1024 10 16 0.00 0.00
1:53 am 01:53 Clear 22 -5.6 16 -8.9 78 78 Calm 30.23 1024 10 16 0.00 0.00
2:53 am 02:53 Clear 20 -6.7 15 -9.4 81 81 Calm 30.23 1024 10 16 0.00 0.00
3:53 am 03:53 Clear 21 -6.1 16 -8.9 81 81 Calm 30.22 1023 10 16 0.00 0.00
4:53 am 04:53 Clear 22 -5.6 16 -8.9 78 78 Calm 30.20 1023 10 16 0.00 0.00
5:53 am 05:53 Clear 20 -6.7 16 -8.9 85 85 Calm 30.19 1022 10 16 0.00 0.00
6:53 am 06:53 Clear 20 -6.7 16 -8.9 85 85 Calm 30.21 1023 10 16 0.00 0.00
7:53 am 07:53 Clear 20 -6.7 16 -8.9 85 85 Calm 30.23 1024 10 16 0.00 0.00
8:53 am 08:53 Sunny 24 -4.4 18 -7.8 77 77 Calm 30.24 1024 10 16 0.00 0.00
9:53 am 09:53 Sunny 33 0.6 23 -5 66 66 SE 5 7 30.23 1024 10 16 0.00 0.00
10:53 am 10:53 Sunny 41 5 25 -3.9 53 53 ESE 3 6 30.21 1023 10 16 0.00 0.00
11:53 am 11:53 Sunny 46 7.8 30 -1.1 54 54 SE 5 7 30.19 1023 10 16 0.00 0.00
12:53 pm 12:53 Sunny 49 9.4 27 -2.8 43 43 S 7 11 30.16 1021 10 16 0.00 0.00
1:53 pm 13:53 Sunny 51 10.6 31 -0.6 46 46 VRB 7 11 30.14 1021 10 16 0.00 0.00
2:53 pm 14:53 Sunny 52 11.1 34 1.1 50 50 WSW 8 13 30.10 1019 10 16 0.00 0.00
3:53 pm 15:53 Sunny 53 11.7 35 1.7 51 51 Calm 30.07 1018 10 16 0.00 0.00
4:53 pm 16:53 Sunny 49 9.4 35 1.7 59 59 ENE 5 7 30.07 1018 10 16 0.00 0.00
5:53 pm 17:53 Clear 43 6.1 32 0 65 65 E 7 11 30.07 1018 10 16 0.00 0.00
6:53 pm 18:53 Clear 41 5 31 -0.6 67 67 E 5 7 30.09 1019 10 16 0.00 0.00
7:53 pm 19:53 Partly Cloudy 44 6.7 33 0.6 65 65 ENE 7 11 30.07 1018 10 16 0.00 0.00
8:53 pm 20:53 Mostly Cloudy 43 6.1 32 0 65 65 ESE 6 9 30.06 1018 10 16 0.00 0.00
9:53 pm 21:53 Cloudy 44 6.7 32 0 63 63 E 6 9 30.05 1018 10 16 0.00 0.00
10:53 pm 22:53 Cloudy 46 7.8 33 0.6 61 61 E 6 9 30.03 1017 10 16 0.00 0.00
11:53 pm 23:53 Cloudy 46 7.8 33 0.6 61 61 E 3 6 30.00 1016 10 16 0.00 0.00

Powered by AerisWeather